Terug naar catalogus

PUNCH-WFI01

ActiefWetenschapSSO
NORAD 63179·PAYLOAD·🇺🇸 United States

Gelanceerd Mar 12, 2025 vanaf Vandenberg Space Force Base

Loading…

Volgende Passages (komende 24 uur)

TLE

VersSource: Space-Track

Epoch: Sep 14, 2026, 12:03 UTC

1 63179U 25047B   26257.50242335  .00000360  00000-0  61765-4 0  9998
2 63179  97.9606  81.2457 0007667 248.3961 111.6431 14.74427337 81223

Volg PUNCH-WFI01 in realtime met AllMySat

Download on the App Store